Weather History for South Bend, IN

Change the Weather History Date:

Friday, June 20, 2014

  Actual Average Record
Temperature  
Mean Temperature 74 °F 71 °F  
Max Temperature 83 °F 81 °F 100 °F (1953)
Min Temperature 65 °F 60 °F 44 °F (1992)
Degree Days  
Heating Degree Days 0 1  
Month to date heating degree days 17 37  
Since 1 June heating degree days 17 37  
Since 1 July heating degree days 6953 6291  
Cooling Degree Days 9 7  
Month to date cooling degree days 114 91  
Year to date cooling degree days 199 147  
Since 1 June cooling degree days 114 91  
Growing Degree Days 24 (Base 50)    
Moisture  
Dew Point 65 °F    
Average Humidity 76    
Maximum Humidity 93    
Minimum Humidity 58    
Precipitation  
Precipitation 0.21 in 0.13 in 1.48 in (1919)
Month to date precipitation 5.59 2.60  
Year to date precipitation 20.67 16.32  
Sea Level Pressure  
Sea Level Pressure 29.99 in    
Wind  
Wind Speed 9 mph (SSE)    
Max Wind Speed 17 mph    
Max Gust Speed 23 mph    
Visibility 8 miles    
Events Rain    
T = Trace of Precipitation, MM = Missing Value Source: NWS Daily Summary

Daily Weather History Graph

Daily Weather History Graph

Search for Another Location

Airport:

Trip Planner

Search our weather history database for the weather conditions in past years. The results will help you decide how hot, cold, wet, or windy it might be!

Date:

Astronomy

Jun. 20, 2014 Rise Set
Actual Time 6:10 AM EDT 9:23 PM EDT
Civil Twilight 5:36 AM EDT 9:57 PM EDT
Nautical Twilight 4:52 AM EDT 10:41 PM EDT
Astronomical Twilight 3:59 AM EDT 11:34 PM EDT
Moon 1:53 AM EDT (6/20) 2:52 PM EDT (6/20)
Length of Visible Light 16h 21m
Length of Day
15h 12m
Last Quarter, 40% of the Moon is Illuminated
Jun 20
Last Quarter
Jun 27
New
Jul 5
First Quarter
Jul 12
Full
Jul 18
Last Quarter

Hourly Weather History & Observations

Time (EDT) Temp. Heat Index Dew Point Humidity Pressure Visibility Wind Dir Wind Speed Gust Speed Precip Events Conditions
12:08 AM 73.9 °F - 64.9 °F 73% 30.09 in 10.0 mi SE 10.4 mph - N/A   Overcast
12:54 AM 73.0 °F - 64.9 °F 76% 30.06 in 10.0 mi SE 8.1 mph - N/A   Overcast
1:15 AM 73.0 °F - 64.0 °F 73% 30.08 in 10.0 mi SE 9.2 mph - N/A   Mostly Cloudy
1:54 AM 72.0 °F - 64.0 °F 76% 30.04 in 10.0 mi ESE 8.1 mph - N/A   Mostly Cloudy
2:54 AM 71.1 °F - 64.0 °F 78% 30.02 in 10.0 mi ESE 11.5 mph - N/A   Scattered Clouds
3:54 AM 70.0 °F - 63.0 °F 78% 30.02 in 10.0 mi SE 12.7 mph - 0.00 in Rain Light Rain
4:54 AM 68.0 °F - 63.0 °F 84% 30.03 in 5.0 mi SSE 6.9 mph - 0.06 in Rain Light Rain
5:10 AM 68.0 °F - 64.0 °F 87% 30.04 in 7.0 mi SSE 4.6 mph - 0.01 in Rain Rain
5:54 AM 66.9 °F - 63.0 °F 87% 30.01 in 5.0 mi ESE 10.4 mph - 0.09 in Rain Rain
6:01 AM 66.9 °F - 63.0 °F 87% 30.01 in 5.0 mi ESE 12.7 mph - 0.01 in Rain Rain
6:54 AM 66.9 °F - 63.0 °F 87% 29.99 in 7.0 mi ESE 10.4 mph - 0.06 in   Mostly Cloudy
7:54 AM 66.9 °F - 64.0 °F 90% 30.00 in 6.0 mi SE 11.5 mph - N/A   Overcast
8:54 AM 66.9 °F - 63.0 °F 87% 30.01 in 6.0 mi ESE 12.7 mph - 0.00 in   Overcast
9:21 AM 66.9 °F - 63.0 °F 87% 30.02 in 6.0 mi SE 8.1 mph - N/A   Overcast
9:54 AM 69.1 °F - 64.0 °F 84% 30.00 in 7.0 mi SSE 9.2 mph - N/A   Mostly Cloudy
10:54 AM 71.1 °F - 64.9 °F 81% 29.99 in 7.0 mi South 8.1 mph - N/A   Overcast
11:02 AM 71.1 °F - 64.9 °F 81% 30.01 in 7.0 mi South 6.9 mph - N/A   Overcast
11:54 AM 73.0 °F - 66.9 °F 81% 29.99 in 6.0 mi Variable 3.5 mph - N/A   Haze
12:34 PM 73.9 °F - 68.0 °F 82% 29.99 in 7.0 mi South 5.8 mph - N/A   Overcast
12:54 PM 75.0 °F - 68.0 °F 79% 29.97 in 8.0 mi SSE 5.8 mph - N/A   Overcast
1:54 PM 78.1 °F - 68.0 °F 71% 29.94 in 10.0 mi SW 5.8 mph - N/A   Overcast
2:17 PM 79.0 °F - 69.1 °F 72% 29.95 in 10.0 mi SW 9.2 mph - N/A   Mostly Cloudy
2:54 PM 81.0 °F 84.4 °F 70.0 °F 69% 29.93 in 10.0 mi SSW 10.4 mph - N/A   Mostly Cloudy
3:23 PM 78.1 °F - 70.0 °F 76% 29.95 in 10.0 mi NW 10.4 mph - 0.00 in Rain Light Rain
3:54 PM 80.6 °F 83.9 °F 69.8 °F 70% 29.95 in 10.0 mi WNW 10.4 mph - N/A   Scattered Clouds
5:54 PM 82.0 °F 84.5 °F 66.9 °F 60% 29.92 in 10.0 mi NW 15.0 mph - N/A   Mostly Cloudy
6:54 PM 78.1 °F - 66.9 °F 68% 29.92 in 10.0 mi NNW 11.5 mph - N/A   Mostly Cloudy
7:54 PM 75.9 °F - 64.9 °F 69% 29.92 in 10.0 mi NW 10.4 mph - N/A   Clear
8:54 PM 73.0 °F - 64.9 °F 76% 29.93 in 10.0 mi North 5.8 mph - N/A   Clear
10:54 PM 68.0 °F - 64.0 °F 87% 29.96 in 10.0 mi NNW 5.8 mph - N/A   Clear
11:54 PM 66.9 °F - 64.0 °F 90% 29.95 in 8.0 mi Calm Calm - N/A   Clear